VNRedSat-1A

operational
NORAD ID: 39160 Int'l Des: 2013-021 Owner: VAST Country: VN
LEOCIRCULARRETROGRADESSO

About VNRedSat-1A

Description loading...

Live Position

Loading 3D Globe...

Upcoming Passes

Altitude History

Altitude vs Time

uPlot chart will show altitude changes over time

Two-Line Element Set

1 39160U 13021B 26103.19800332 .00000492 00000-0 10040-3 0 9997
2 39160 97.9148 159.0875 0001300 84.4779 275.6572 14.64941001690770
Epoch: Apr 13, 2026 • Age: 4 hours

Current Status

Altitude 688.8 km
Velocity 7.52 km/s
Sub-Earth Point 72.29°N, 166.52°E
Launch Date May 7, 2013
Age 12.9 years
Type other

Technical Details

Classification Payload
Mass 115.00 kg
Dry Mass 115.00 kg
Total Mass 115.00 kg
Length 1.20 m
Diameter 0.60 m
Span 2.00 m
Shape Box+panel
Manufacturer ASTT
Bus Type AstroSat-100
Phase Status In Orbit
Owner/State VAST/VN

Large Constellations

Loading constellations...